Regional Weather Roundup
Issued by NWS Goodland, KS

Home | Current Version | Previous Version | Graphics & Text | Print | Product List | Glossary On
Versions: 1 2 3 4 5 6 7 8 9 10 11 12 13 14 15 16 17 18 19 20 21 22 23 24 25 26 27 28 29 30 31 32 33 34 35 36 37 38 39 40 41 42 43 44 45 46 47 48 49 50
000
ASUS43 KGLD 312308
RWRGLD

GOODLAND FORECAST AREA HOURLY WEATHER ROUNDUP
NATIONAL WEATHER SERVICE GOODLAND KS
400 PM MST SAT JAN 31 2015

...OFFICIAL OBSERVATIONS...

CITY           SKY/WX    TMP DP  RH WIND       PRES   REMARKS
GOODLAND KS    LGT SNOW  34  33  96 N12       29.78F FOG
HILL CITY KS   LGT RAIN  40  38  93 S5        29.80F FOG
IMPERIAL NEB   LGT SNOW  33  31  92 N7        29.82R FOG
MCCOOK NEB     LGT SNOW  34  32  92 N7        29.82S FOG
AKRON CO       LGT SNOW  33  32  96 N8        29.79S VSB 1
BURLINGTON CO  FLURRIES  35  33  92 N12       29.78S
LIMON CO       FLURRIES  33  31  92 NW10      29.78F
$$

...UNOFFICIAL OBSERVATIONS...

CITY           SKY/WX    TMP DP  RH WIND       PRES   REMARKS
COLBY KS       DRIZZLE   37  37 100 NW8       29.79S
GOVE KS          N/A     41  32  70 MISG        N/A
NORTON KS      RAIN      34  32  93 NE6       29.80F
SHARON SPRINGS   N/A     38  35  90 N10         N/A
KIT CARSON CO    N/A     38  35  88 MISG        N/A
YUMA CO          N/A     34  31  90 N7          N/A
$$



USA.gov is the U.S. government's official web portal to all federal, state and local government web resources and services.